SCP
0 0 0 0 0 0 0 0 0 0 0 0 0 0 0 0 0 0 0 0 0 0 0 0 0 0 0 0 0 0 0 0 0 0 0 0 -0 0 0 0 0 0 0 0
0 0 0 0 0 0 0 0 0 0 0 0 0 0 0 0 0 0 0 0 0 0 0 0 0 0 0 0 0 0 0 0 0 0 0 0 0 0 0 0 0 0 0 0
0 0 0 0 0 0 0 0 0 0 0 0 0 0 0 0 0 0 0 0 0 0 0 0 0 0 0 0 0 0 0 0 0 0 -0 0 0 0 0 0 0 0 0 0
0 0 0 0 0 0 0 0 0 0 0 0 0 0 0 0 0 0 0 0 0 0 0 0 0 0 0 0 0 0 0 0 -0 -0 -0 0 0 0 0 0 0 0 0 0
1 0 0 0 0 0 0 0 0 0 0 0 0 0 0 0 0 0 0 0 0 0 0 0 0 0 0 0 0 0 0 0 -0 0 0 0 0 0 0 0 0 0 0 0
0 0 0 0 0 0 0 0 0 0 0 0 0 0 0 0 0 0 0 0 0 0 0 0 0 0 0 0 0 0 -0 -0 0 0 0 0 0 0 0 0 0 0 0 0
0 0 0 0 0 0 0 0 0 0 0 0 0 0 0 0 0 0 0 0 0 0 0 0 0 0 0 0 0 0 -0 -0 0 0 0 0 0 0 0 0 0 0 0 0
0 0 0 0 0 0 0 0 0 0 0 0 0 0 0 0 0 0 0 0 0 0 0 0 0 0 0 0 0 -0 -0 -0 -0 0 0 0 0 0 0 0 0 0 0 0
0 0 0 0 0 0 0 0 0 0 0 0 0 0 0 0 0 0 0 0 0 0 0 0 0 0 0 0 0 -0 -0 -0 -0 -0 0 0 0 0 0 0 0 0 0 0
0 0 0 0 0 0 0 0 0 0 0 0 0 0 0 0 0 0 0 0 0 0 0 0 0 0 0 0 0 -0 -0 -0 0 0 0 0 0 0 0 0 0 0 0 0
0 0 0 0 0 0 0 0 0 0 0 0 0 0 0 0 0 0 0 0 0 0 0 0 0 0 -0 0 0 -0 -0 -0 0 0 0 0 0 0 0 0 0 0 0 0
0 0 0 0 0 0 0 0 0 0 0 0 0 0 0 0 0 0 0 0 0 0 0 0 0 0 0 0 0 -0 -0 0 0 0 0 0 0 0 0 0 0 0 0 0
0 0 0 0 0 0 0 0 0 0 0 0 0 0 0 0 0 0 0 0 0 0 0 0 0 0 0 0 0 0 -0 -0 -0 -0 0 0 0 0 0 0 0 0 0 0
0 0 0 0 0 0 0 0 0 0 0 0 0 0 0 0 0 0 0 0 0 0 0 0 0 0 0 0 0 -0 -0 -0 -0 -0 0 0 0 0 0 0 0 0 0 0
0 0 0 0 0 0 0 0 0 0 0 0 0 0 0 0 0 0 0 0 0 0 0 0 0 0 0 0 0 -0 -0 -0 -0 0 0 0 0 0 0 0 0 0 0 0
0 0 0 0 0 0 0 0 0 0 0 0 0 0 0 0 0 0 0 0 0 0 0 0 0 0 0 0 0 -0 -0 -0 0 0 0 0 0 0 0 0 0 0 0 0
0 0 0 0 0 0 0 0 0 0 0 0 0 0 0 0 0 0 0 0 0 0 0 0 0 0 -0 -0 -0 -0 -0 -0 0 0 0 0 0 0 0 0 0 0 0 0
0 0 0 0 0 0 0 0 0 0 0 0 0 0 0 0 0 0 0 0 0 0 0 0 0 0 0 -0 -0 -0 -0 -0 -0 0 0 0 0 0 0 0 0 0 0 0
0 0 0 0 0 0 0 0 0 0 0 0 0 0 0 0 0 0 0 0 0 0 0 0 0 0 0 -0 -0 -0 -0 -0 0 0 0 0 0 0 0 0 0 0 0 0
0 0 0 0 0 0 0 0 0 0 0 0 0 0 0 0 0 0 0 0 0 0 0 0 0 0 0 0 0 -0 -0 -0 0 0 0 0 0 0 0 0 0 0 0 0
0 0 0 0 0 0 0 0 0 0 0 0 0 0 0 0 0 0 0 0 0 0 0 0 0 0 0 0 0 0 0 0 0 0 0 0 0 0 0 0 0 0 0 0
0 0 0 0 0 0 0 0 0 0 0 0 0 0 0 0 0 0 0 0 0 0 0 0 0 0 0 0 0 0 0 0 0 0 0 0 0 0 0 0 0 0 0 0
0 0 0 0 0 0 0 0 0 0 0 0 0 0 0 0 0 0 0 0 0 0 0 0 0 0 0 0 0 0 0 0 0 0 0 0 0 0 0 0 0 0 0 0
0 0 0 0 0 0 0 0 0 0 0 0 0 0 0 0 0 0 0 0 0 0 0 0 0 0 0 0 0 0 0 0 0 0 0 0 0 0 0 0 0 0 0 0
0 0 0 0 0 0 0 0 0 0 0 0 0 0 0 0 0 0 0 0 0 0 0 0 0 0 0 0 0 0 0 0 0 0 0 0 0 0 0 0 0 0 0 0
0 0 0 0 0 0 0 0 0 0 0 0 0 0 0 0 0 0 0 0 0 0 0 0 0 0 0 0 0 0 0 0 0 0 0 0 0 0 0 0 0 0 0 0
0 0 0 0 0 0 0 0 0 0 0 0 0 0 0 0 0 0 0 0 0 0 0 0 0 0 0 0 0 0 0 0 0 0 0 0 0 0 0 0 0 0 0 0
Wind_Speed_500mb
9 13 9 12 21 20 17 13 15 26 17 23 14 19 25 30 36 42 44 42 40 35 28 19 12 9 6 2 10 6 10 11 11 15 15 17 18 18 22 25 29 36 39 30
7 9 9 7 11 15 19 14 20 18 24 11 0 16 27 36 43 45 44 42 40 35 29 20 11 9 5 6 12 7 11 8 8 11 13 16 19 20 19 20 23 31 34 31
8 5 8 6 14 12 6 10 11 16 15 9 10 18 29 37 44 44 42 43 42 37 27 18 12 11 10 12 13 15 13 6 5 5 9 14 17 20 18 17 22 26 30 30
10 8 10 2 3 3 12 13 16 9 5 6 3 7 15 25 35 36 39 42 40 34 25 16 13 13 15 18 18 19 10 2 6 10 11 9 13 18 17 16 17 22 26 25
9 9 6 7 9 10 12 10 18 17 10 11 15 11 7 23 29 31 37 37 34 27 20 15 12 14 18 23 24 18 8 3 7 12 11 9 14 19 19 19 20 21 21 23
7 8 11 4 4 9 7 13 16 17 21 27 23 8 4 30 33 34 35 35 31 23 18 16 15 22 22 26 26 19 7 8 16 22 23 23 27 29 28 26 25 22 17 19
8 5 5 13 13 15 8 1 17 23 28 36 15 5 8 33 35 34 34 32 26 20 17 18 20 26 24 30 25 18 11 12 15 17 17 18 20 23 26 28 28 24 17 17
7 6 12 19 15 11 4 11 17 23 28 35 19 18 26 34 37 37 33 28 23 20 20 22 27 31 28 31 23 15 15 11 7 6 9 12 14 15 17 20 24 23 21 19
16 10 3 31 5 21 13 11 19 25 27 34 32 26 31 35 35 34 29 24 22 23 25 25 33 33 32 26 20 19 13 5 1 3 7 11 15 16 16 18 19 21 24 22
8 12 12 17 26 14 14 13 19 23 21 31 33 29 30 32 34 31 27 24 24 28 31 30 35 36 30 25 20 16 7 4 3 2 6 11 18 19 18 18 21 22 21 22
1 4 6 17 26 22 23 23 26 25 23 26 30 30 26 29 29 26 24 25 26 32 32 34 40 34 29 22 18 11 8 3 1 4 6 12 19 23 21 19 24 27 26 25
8 23 20 13 34 33 37 36 32 29 30 27 27 22 26 26 27 24 26 26 32 37 39 43 39 31 27 23 16 10 8 5 4 4 8 16 23 24 21 18 22 24 25 27
4 20 30 11 25 35 39 39 36 31 24 30 30 22 25 28 26 25 25 33 39 48 46 41 34 29 26 22 15 10 7 7 6 6 12 21 25 26 25 18 24 26 29 28
19 20 19 21 20 36 39 39 38 36 30 29 25 25 24 26 27 28 35 43 49 48 42 36 32 27 25 21 15 9 5 7 8 9 16 22 28 29 27 31 33 35 37 38
20 21 15 26 21 36 37 41 42 41 38 32 28 24 28 27 29 32 44 49 47 42 36 31 28 24 26 21 16 12 8 6 8 10 18 25 26 23 26 31 39 39 37 37
27 23 17 28 31 34 41 44 44 45 42 33 29 28 27 22 27 37 50 50 47 40 32 28 25 24 21 19 17 14 11 8 6 12 20 24 24 25 30 34 40 34 34 35
26 22 23 23 30 37 44 45 47 46 42 32 27 29 32 28 33 42 52 48 38 31 30 27 28 22 18 19 18 17 13 10 11 15 22 23 21 27 32 36 35 34 32 35
29 24 23 27 33 40 41 44 46 44 38 32 29 32 35 33 40 46 52 45 36 32 31 28 24 20 16 16 17 16 13 10 12 19 20 21 26 30 32 34 31 29 27 26
42 37 39 39 30 34 35 42 45 44 39 34 31 30 28 28 39 47 47 42 35 33 30 23 21 18 16 18 14 11 10 9 14 19 18 23 26 29 29 29 24 24 24 24
42 35 40 35 32 33 34 41 47 45 39 36 31 30 27 29 41 50 45 39 36 29 26 20 17 14 14 12 7 7 6 8 14 13 18 22 23 25 27 29 26 23 23 21
34 45 34 37 33 32 38 42 49 47 40 37 31 28 23 30 45 48 42 33 36 31 25 20 21 18 16 10 6 6 5 7 12 11 15 20 24 28 29 28 26 24 22 20
29 40 45 32 36 38 47 47 46 42 38 37 37 32 26 33 47 45 35 29 33 30 24 21 19 19 13 10 7 7 5 1 3 11 18 24 25 26 25 24 24 25 25 23
23 43 47 47 37 45 54 54 48 41 36 40 40 37 31 29 45 41 35 38 34 29 21 18 19 13 11 10 12 11 8 4 8 16 22 23 22 22 23 24 25 25 24 22
24 40 51 53 46 49 61 60 53 45 35 36 37 36 34 32 39 35 29 39 34 28 21 14 17 14 10 13 16 14 6 6 15 19 19 18 18 20 21 22 23 23 23 21
24 38 54 58 52 59 65 60 57 49 42 37 35 35 32 29 39 49 39 41 32 25 21 19 17 15 16 15 15 8 5 13 17 16 14 17 18 20 22 23 23 23 23 22
27 39 46 52 58 69 67 61 58 50 45 41 38 35 34 35 38 51 41 39 33 26 27 21 13 16 16 15 10 1 9 13 13 14 16 17 18 20 22 22 24 25 26 28
27 35 46 57 61 65 61 59 55 49 42 36 34 36 43 42 42 47 42 38 33 28 30 22 16 18 19 14 5 4 10 13 14 14 15 17 20 22 24 28 32 35 38 39
Wind_Direction_500mb
99 128 139 145 173 178 208 228 231 273 241 268 271 226 196 185 179 178 183 186 191 194 199 213 245 294 301 158 168 137 126 105 78 46 40 29 22 19 17 18 20 21 22 26
114 119 132 182 200 213 234 241 248 259 260 268 169 156 170 182 181 185 187 188 191 195 204 218 246 255 239 185 179 165 147 118 74 57 46 30 22 15 11 10 9 11 12 18
134 121 122 255 240 213 231 227 259 247 292 173 183 195 195 188 189 191 189 189 191 197 207 219 244 232 203 188 174 156 148 119 67 25 8 11 20 20 14 1 359 1 7 22
134 166 222 110 178 305 262 260 220 249 258 193 188 171 192 197 192 189 187 188 189 198 206 224 235 212 194 180 166 157 153 99 346 327 324 343 356 358 7 10 8 5 10 26
147 179 319 242 202 182 195 245 205 202 159 144 138 140 198 198 195 194 191 188 193 199 212 224 223 193 179 175 165 160 158 35 19 36 55 41 31 30 25 23 17 14 23 32
157 174 218 202 169 198 164 268 185 181 169 161 156 189 148 192 191 189 190 191 196 204 219 216 204 189 173 172 166 167 152 116 82 80 81 70 53 45 43 37 30 29 36 31
139 180 252 237 158 153 198 321 167 180 172 167 183 165 157 176 179 187 189 190 198 213 216 195 187 171 171 169 166 169 158 129 101 87 73 57 46 39 35 35 32 29 21 10
126 168 246 155 145 205 155 159 169 175 181 176 173 151 152 168 181 184 187 193 205 200 188 186 173 166 169 167 168 169 160 142 113 71 42 28 18 8 4 11 12 8 3 356
187 196 117 182 165 187 168 163 185 183 185 184 174 164 164 170 179 184 189 199 191 183 179 174 164 164 162 164 163 157 152 157 217 4 12 4 356 343 336 337 338 344 345 346
147 188 208 198 208 202 206 203 173 186 190 190 186 175 172 175 180 186 190 188 184 179 174 171 166 161 160 158 153 155 155 154 143 3 343 349 349 346 333 324 320 322 329 337
229 245 246 237 215 210 184 167 163 167 176 182 189 183 182 181 185 186 187 185 182 174 171 167 161 162 161 162 165 171 168 153 344 323 314 328 337 336 329 322 321 320 313 311
198 200 190 205 212 194 179 167 168 166 169 177 187 190 188 186 188 189 185 180 170 168 163 158 159 164 170 175 181 191 202 229 280 332 335 334 336 333 327 319 327 337 339 321
283 220 198 167 178 190 181 174 171 169 170 177 180 188 189 187 187 181 179 171 165 158 157 160 163 167 176 184 186 186 204 254 277 308 328 333 340 343 348 321 319 319 321 316
238 188 174 172 181 186 184 178 178 175 169 175 181 178 184 187 185 180 170 162 159 160 165 169 172 180 188 188 192 205 225 274 269 296 321 330 330 328 319 325 324 324 327 327
212 191 218 187 168 180 184 184 181 179 178 177 179 185 187 189 189 178 169 168 168 171 178 183 190 195 205 204 204 224 217 243 253 291 318 323 332 340 334 328 324 323 329 333
207 214 182 179 184 186 188 188 190 186 186 185 185 187 188 185 186 179 176 177 179 183 192 191 186 188 201 202 215 216 218 223 264 309 319 328 329 327 328 333 343 334 328 328
180 193 185 189 197 198 200 200 198 195 189 187 186 187 187 186 183 182 183 184 187 188 188 183 169 185 207 220 215 209 224 249 283 312 328 333 331 328 326 329 333 332 335 332
233 239 237 240 218 204 200 197 195 195 189 185 186 190 193 195 188 183 184 185 186 188 186 180 187 200 212 209 208 218 239 263 290 320 326 326 328 325 327 336 342 345 347 347
246 248 243 234 219 213 209 197 189 189 186 184 190 195 199 199 190 184 182 185 188 184 182 188 194 207 217 209 210 235 246 262 302 318 322 330 328 330 340 345 350 351 352 356
239 246 229 223 217 215 204 191 186 185 185 185 186 189 192 192 186 184 187 190 187 181 179 185 196 194 188 188 223 219 236 281 308 320 328 332 335 340 342 342 346 353 355 3
226 224 220 223 225 205 194 185 184 184 186 186 188 187 189 186 182 184 185 187 184 181 187 204 198 198 196 200 206 224 240 296 313 327 335 336 337 338 341 347 352 356 356 358
206 213 218 221 213 197 182 178 181 183 187 185 187 187 180 181 180 182 186 182 182 181 185 193 203 198 200 199 227 211 246 280 2 342 338 338 341 345 352 355 353 351 349 350
229 210 212 218 203 192 176 176 178 182 184 189 192 192 190 187 183 178 181 181 180 175 168 173 183 187 183 210 199 176 145 95 351 341 342 348 354 357 357 356 353 353 354 356
250 214 205 205 193 187 176 179 180 181 182 190 197 198 194 182 182 178 181 178 174 170 170 168 156 155 178 172 164 150 122 359 346 349 -0 3 6 4 2 2 3 5 9 13
247 200 202 200 190 185 181 178 180 183 188 193 193 192 192 194 182 177 178 177 173 175 175 163 153 173 175 169 162 148 11 356 360 10 15 19 15 13 14 15 18 25 32 39
220 200 199 194 189 182 179 178 181 183 184 181 181 183 179 173 172 173 174 176 181 178 176 167 172 177 173 167 163 90 2 9 28 33 30 28 29 30 32 36 43 49 57 64
194 192 186 184 183 174 175 181 181 181 181 182 175 167 169 168 169 173 172 172 168 166 176 177 175 167 165 167 163 19 30 42 44 42 43 45 48 51 59 66 70 75 78 81
Wind_Speed_850mb
9 13 9 12 21 20 17 13 15 26 17 23 14 19 25 30 36 42 44 42 40 35 28 19 12 9 6 2 10 6 10 11 11 15 15 17 18 18 22 25 29 36 39 30
7 9 9 7 11 15 19 14 20 18 24 11 0 16 27 36 43 45 44 42 40 35 29 20 11 9 5 6 12 7 11 8 8 11 13 16 19 20 19 20 23 31 34 31
8 5 8 6 14 12 6 10 11 16 15 9 10 18 29 37 44 44 42 43 42 37 27 18 12 11 10 12 13 15 13 6 5 5 9 14 17 20 18 17 22 26 30 30
10 8 10 2 3 3 12 13 16 9 5 6 3 7 15 25 35 36 39 42 40 34 25 16 13 13 15 18 18 19 10 2 6 10 11 9 13 18 17 16 17 22 26 25
9 9 6 7 9 10 12 10 18 17 10 11 15 11 7 23 29 31 37 37 34 27 20 15 12 14 18 23 24 18 8 3 7 12 11 9 14 19 19 19 20 21 21 23
7 8 11 4 4 9 7 13 16 17 21 27 23 8 4 30 33 34 35 35 31 23 18 16 15 22 22 26 26 19 7 8 16 22 23 23 27 29 28 26 25 22 17 19
8 5 5 13 13 15 8 1 17 23 28 36 15 5 8 33 35 34 34 32 26 20 17 18 20 26 24 30 25 18 11 12 15 17 17 18 20 23 26 28 28 24 17 17
7 6 12 19 15 11 4 11 17 23 28 35 19 18 26 34 37 37 33 28 23 20 20 22 27 31 28 31 23 15 15 11 7 6 9 12 14 15 17 20 24 23 21 19
16 10 3 31 5 21 13 11 19 25 27 34 32 26 31 35 35 34 29 24 22 23 25 25 33 33 32 26 20 19 13 5 1 3 7 11 15 16 16 18 19 21 24 22
8 12 12 17 26 14 14 13 19 23 21 31 33 29 30 32 34 31 27 24 24 28 31 30 35 36 30 25 20 16 7 4 3 2 6 11 18 19 18 18 21 22 21 22
1 4 6 17 26 22 23 23 26 25 23 26 30 30 26 29 29 26 24 25 26 32 32 34 40 34 29 22 18 11 8 3 1 4 6 12 19 23 21 19 24 27 26 25
8 23 20 13 34 33 37 36 32 29 30 27 27 22 26 26 27 24 26 26 32 37 39 43 39 31 27 23 16 10 8 5 4 4 8 16 23 24 21 18 22 24 25 27
4 20 30 11 25 35 39 39 36 31 24 30 30 22 25 28 26 25 25 33 39 48 46 41 34 29 26 22 15 10 7 7 6 6 12 21 25 26 25 18 24 26 29 28
19 20 19 21 20 36 39 39 38 36 30 29 25 25 24 26 27 28 35 43 49 48 42 36 32 27 25 21 15 9 5 7 8 9 16 22 28 29 27 31 33 35 37 38
20 21 15 26 21 36 37 41 42 41 38 32 28 24 28 27 29 32 44 49 47 42 36 31 28 24 26 21 16 12 8 6 8 10 18 25 26 23 26 31 39 39 37 37
27 23 17 28 31 34 41 44 44 45 42 33 29 28 27 22 27 37 50 50 47 40 32 28 25 24 21 19 17 14 11 8 6 12 20 24 24 25 30 34 40 34 34 35
26 22 23 23 30 37 44 45 47 46 42 32 27 29 32 28 33 42 52 48 38 31 30 27 28 22 18 19 18 17 13 10 11 15 22 23 21 27 32 36 35 34 32 35
29 24 23 27 33 40 41 44 46 44 38 32 29 32 35 33 40 46 52 45 36 32 31 28 24 20 16 16 17 16 13 10 12 19 20 21 26 30 32 34 31 29 27 26
42 37 39 39 30 34 35 42 45 44 39 34 31 30 28 28 39 47 47 42 35 33 30 23 21 18 16 18 14 11 10 9 14 19 18 23 26 29 29 29 24 24 24 24
42 35 40 35 32 33 34 41 47 45 39 36 31 30 27 29 41 50 45 39 36 29 26 20 17 14 14 12 7 7 6 8 14 13 18 22 23 25 27 29 26 23 23 21
34 45 34 37 33 32 38 42 49 47 40 37 31 28 23 30 45 48 42 33 36 31 25 20 21 18 16 10 6 6 5 7 12 11 15 20 24 28 29 28 26 24 22 20
29 40 45 32 36 38 47 47 46 42 38 37 37 32 26 33 47 45 35 29 33 30 24 21 19 19 13 10 7 7 5 1 3 11 18 24 25 26 25 24 24 25 25 23
23 43 47 47 37 45 54 54 48 41 36 40 40 37 31 29 45 41 35 38 34 29 21 18 19 13 11 10 12 11 8 4 8 16 22 23 22 22 23 24 25 25 24 22
24 40 51 53 46 49 61 60 53 45 35 36 37 36 34 32 39 35 29 39 34 28 21 14 17 14 10 13 16 14 6 6 15 19 19 18 18 20 21 22 23 23 23 21
24 38 54 58 52 59 65 60 57 49 42 37 35 35 32 29 39 49 39 41 32 25 21 19 17 15 16 15 15 8 5 13 17 16 14 17 18 20 22 23 23 23 23 22
27 39 46 52 58 69 67 61 58 50 45 41 38 35 34 35 38 51 41 39 33 26 27 21 13 16 16 15 10 1 9 13 13 14 16 17 18 20 22 22 24 25 26 28
27 35 46 57 61 65 61 59 55 49 42 36 34 36 43 42 42 47 42 38 33 28 30 22 16 18 19 14 5 4 10 13 14 14 15 17 20 22 24 28 32 35 38 39
Wind_Direction_850mb
99 128 139 145 173 178 208 228 231 273 241 268 271 226 196 185 179 178 183 186 191 194 199 213 245 294 301 158 168 137 126 105 78 46 40 29 22 19 17 18 20 21 22 26
114 119 132 182 200 213 234 241 248 259 260 268 169 156 170 182 181 185 187 188 191 195 204 218 246 255 239 185 179 165 147 118 74 57 46 30 22 15 11 10 9 11 12 18
134 121 122 255 240 213 231 227 259 247 292 173 183 195 195 188 189 191 189 189 191 197 207 219 244 232 203 188 174 156 148 119 67 25 8 11 20 20 14 1 359 1 7 22
134 166 222 110 178 305 262 260 220 249 258 193 188 171 192 197 192 189 187 188 189 198 206 224 235 212 194 180 166 157 153 99 346 327 324 343 356 358 7 10 8 5 10 26
147 179 319 242 202 182 195 245 205 202 159 144 138 140 198 198 195 194 191 188 193 199 212 224 223 193 179 175 165 160 158 35 19 36 55 41 31 30 25 23 17 14 23 32
157 174 218 202 169 198 164 268 185 181 169 161 156 189 148 192 191 189 190 191 196 204 219 216 204 189 173 172 166 167 152 116 82 80 81 70 53 45 43 37 30 29 36 31
139 180 252 237 158 153 198 321 167 180 172 167 183 165 157 176 179 187 189 190 198 213 216 195 187 171 171 169 166 169 158 129 101 87 73 57 46 39 35 35 32 29 21 10
126 168 246 155 145 205 155 159 169 175 181 176 173 151 152 168 181 184 187 193 205 200 188 186 173 166 169 167 168 169 160 142 113 71 42 28 18 8 4 11 12 8 3 356
187 196 117 182 165 187 168 163 185 183 185 184 174 164 164 170 179 184 189 199 191 183 179 174 164 164 162 164 163 157 152 157 217 4 12 4 356 343 336 337 338 344 345 346
147 188 208 198 208 202 206 203 173 186 190 190 186 175 172 175 180 186 190 188 184 179 174 171 166 161 160 158 153 155 155 154 143 3 343 349 349 346 333 324 320 322 329 337
229 245 246 237 215 210 184 167 163 167 176 182 189 183 182 181 185 186 187 185 182 174 171 167 161 162 161 162 165 171 168 153 344 323 314 328 337 336 329 322 321 320 313 311
198 200 190 205 212 194 179 167 168 166 169 177 187 190 188 186 188 189 185 180 170 168 163 158 159 164 170 175 181 191 202 229 280 332 335 334 336 333 327 319 327 337 339 321
283 220 198 167 178 190 181 174 171 169 170 177 180 188 189 187 187 181 179 171 165 158 157 160 163 167 176 184 186 186 204 254 277 308 328 333 340 343 348 321 319 319 321 316
238 188 174 172 181 186 184 178 178 175 169 175 181 178 184 187 185 180 170 162 159 160 165 169 172 180 188 188 192 205 225 274 269 296 321 330 330 328 319 325 324 324 327 327
212 191 218 187 168 180 184 184 181 179 178 177 179 185 187 189 189 178 169 168 168 171 178 183 190 195 205 204 204 224 217 243 253 291 318 323 332 340 334 328 324 323 329 333
207 214 182 179 184 186 188 188 190 186 186 185 185 187 188 185 186 179 176 177 179 183 192 191 186 188 201 202 215 216 218 223 264 309 319 328 329 327 328 333 343 334 328 328
180 193 185 189 197 198 200 200 198 195 189 187 186 187 187 186 183 182 183 184 187 188 188 183 169 185 207 220 215 209 224 249 283 312 328 333 331 328 326 329 333 332 335 332
233 239 237 240 218 204 200 197 195 195 189 185 186 190 193 195 188 183 184 185 186 188 186 180 187 200 212 209 208 218 239 263 290 320 326 326 328 325 327 336 342 345 347 347
246 248 243 234 219 213 209 197 189 189 186 184 190 195 199 199 190 184 182 185 188 184 182 188 194 207 217 209 210 235 246 262 302 318 322 330 328 330 340 345 350 351 352 356
239 246 229 223 217 215 204 191 186 185 185 185 186 189 192 192 186 184 187 190 187 181 179 185 196 194 188 188 223 219 236 281 308 320 328 332 335 340 342 342 346 353 355 3
226 224 220 223 225 205 194 185 184 184 186 186 188 187 189 186 182 184 185 187 184 181 187 204 198 198 196 200 206 224 240 296 313 327 335 336 337 338 341 347 352 356 356 358
206 213 218 221 213 197 182 178 181 183 187 185 187 187 180 181 180 182 186 182 182 181 185 193 203 198 200 199 227 211 246 280 2 342 338 338 341 345 352 355 353 351 349 350
229 210 212 218 203 192 176 176 178 182 184 189 192 192 190 187 183 178 181 181 180 175 168 173 183 187 183 210 199 176 145 95 351 341 342 348 354 357 357 356 353 353 354 356
250 214 205 205 193 187 176 179 180 181 182 190 197 198 194 182 182 178 181 178 174 170 170 168 156 155 178 172 164 150 122 359 346 349 -0 3 6 4 2 2 3 5 9 13
247 200 202 200 190 185 181 178 180 183 188 193 193 192 192 194 182 177 178 177 173 175 175 163 153 173 175 169 162 148 11 356 360 10 15 19 15 13 14 15 18 25 32 39
220 200 199 194 189 182 179 178 181 183 184 181 181 183 179 173 172 173 174 176 181 178 176 167 172 177 173 167 163 90 2 9 28 33 30 28 29 30 32 36 43 49 57 64
194 192 186 184 183 174 175 181 181 181 181 182 175 167 169 168 169 173 172 172 168 166 176 177 175 167 165 167 163 19 30 42 44 42 43 45 48 51 59 66 70 75 78 81